Regional Weather Roundup
Issued by NWS

Home | Current Version | Previous Version | Graphics & Text | Print | Product List | Glossary Off
Versions: 1 2 3 4 5 6 7 8 9 10 11 12 13 14 15 16 17 18 19 20 21 22 23 24 25 26 27 28 29 30 31 32 33 34 35 36 37 38 39 40 41 42 43 44 45 46 47 48 49 50

000
ASUS43 KTOP 042108
RWRKS

WEATHER ROUNDUP FOR KANSAS
NATIONAL WEATHER SERVICE GOODLAND KS
400 PM CDT SAT JUL 04 2015

NOTE:  "FAIR" INDICATES FEW OR NO CLOUDS BELOW 12,000 FEET WITH NO
SIGNIFICANT WEATHER AND/OR OBSTRUCTIONS TO VISIBILITY.

KSZ001>006-013>018-027>032-041>047-042200-
NORTHWEST KANSAS

CITY           SKY/WX    TMP DP  RH WIND       PRES   REMARKS
GOODLAND       SUNNY     92  55  28 S20G30    29.92F
HAYS           MOSUNNY   90  64  43 S18G25    29.93F
HILL CITY      MOSUNNY   95  61  32 S17G24    29.91F HX  95
RUSSELL        SUNNY     88  65  46 S15       29.92F
$$

KSZ061>065-074>080-084>089-042200-
SOUTHWEST KANSAS

CITY           SKY/WX    TMP DP  RH WIND       PRES   REMARKS
DODGE CITY     MOSUNNY   89  60  37 S21G26    29.94F
ELKHART          N/A     93  61  34 S16         N/A
GARDEN CITY    SUNNY     87  65  47 S20G26    29.93F
GREAT BEND     SUNNY     88  64  45 SE15G22   29.94F
LIBERAL        SUNNY     91  63  38 S17G23    29.96F
PRATT          SUNNY     90  57  33 S12G17    29.95F
$$

KSZ066>073-081>083-090>101-042200-
SOUTHEAST KANSAS

CITY           SKY/WX    TMP DP  RH WIND       PRES   REMARKS
CHANUTE        MOSUNNY   85  65  51 E5        29.96F
COFFEYVILLE    PTSUNNY   89  66  46 VRB5      29.94F
HUTCHINSON     MOSUNNY   90  63  40 SE13G18   29.94F
MEDICINE LODGE   N/A     92  63  38 S10G17    29.92F
NEWTON         MOSUNNY   88  59  37 E12       29.99F
PARSONS        MOSUNNY   87  67  51 CALM      29.96F
WICHITA INTL   MOSUNNY   90  62  39 VRB7      29.94F
WICHITA JABRA  SUNNY     88  63  43 E8        29.95F
WICHITA MCCONL MOSUNNY   89  62  41 SE9       29.95F
WINFIELD       SUNNY     90  65  43 SE8       29.95F
$$

KSZ007>012-019>026-033>040-048>060-102>105-042200-
NORTHEAST KANSAS

CITY           SKY/WX    TMP DP  RH WIND       PRES   REMARKS
CONCORDIA      SUNNY     85  61  44 SE14G20   29.95F
EMPORIA        MOSUNNY   86  59  39 SE9       29.96F
LAWRENCE       PTSUNNY   82  61  48 S6        29.98F
MANHATTAN      MOSUNNY   87  63  44 SE7       29.95F
MARYSVILLE     PTSUNNY   82  66  57 S9        29.97S
OLATHE IND     MOSUNNY   83  62  49 S8        29.99F
OLATHE EXE     MOSUNNY   79  60  52 SE6       29.98F
SALINA         MOSUNNY   91  61  36 S7G20     29.93F
TOPEKA BILLARD MOSUNNY   83  63  50 S8        29.97F
TOPEKA FORBES  PTSUNNY   84  64  50 S8        29.98F
$$


USA.gov is the U.S. government's official web portal to all federal, state and local government web resources and services.